When you browse on this site, cookies collect data to enhance your experience and personalize the content and advertising you see.
Visit our Privacy Policy to learn more. By continuing to use the site, you agree to this use of cookies and data.
  • In Deutschland
  • Länderverzeichnis
  • Für 7 Tage
  • Wassertemperatur
  • Wetterkarte
  • Widgets
  • user-avatar
    Anmelden

    Stündliche Wetter Zaharovka

    Heute, 19 Oktober, Samstag

    Zeit Temperatur Niederschläge Wind Luftdruck Luftfeuchtigkeit
    00:00 -9°C° 0 mm 4 m/S 736 mmHg 83%
    01:00 -8°C° 0 mm 3 m/S 736 mmHg 83%
    02:00 -8°C° 0 mm 3 m/S 737 mmHg 84%
    03:00 -9°C° 0 mm 3 m/S 737 mmHg 84%
    04:00 -9°C° 0 mm 2 m/S 738 mmHg 88%
    05:00 -9°C° 0 mm 2 m/S 738 mmHg 89%
    06:00 -9°C° 0 mm 2 m/S 738 mmHg 89%
    07:00 -9°C° 0 mm 2 m/S 738 mmHg 89%
    08:00 -9°C° 0 mm 3 m/S 739 mmHg 82%
    09:00 -7°C° 0 mm 3 m/S 740 mmHg 75%
    10:00 -6°C° 0 mm 3 m/S 740 mmHg 68%
    11:00 -6°C° 0 mm 3 m/S 740 mmHg 65%
    12:00 -5°C° 0 mm 3 m/S 740 mmHg 63%
    13:00 -4°C° 0 mm 3 m/S 740 mmHg 61%
    14:00 -4°C° 0 mm 2 m/S 741 mmHg 64%
    15:00 -4°C° 0 mm 2 m/S 741 mmHg 67%
    16:00 -4°C° 0 mm 2 m/S 741 mmHg 71%
    17:00 -5°C° 0 mm 2 m/S 741 mmHg 75%
    18:00 -6°C° 0 mm 1 m/S 742 mmHg 79%
    19:00 -7°C° 0 mm 1 m/S 742 mmHg 84%
    20:00 -7°C° 0 mm 1 m/S 742 mmHg 85%
    21:00 -7°C° 0 mm 1 m/S 742 mmHg 85%
    22:00 -7°C° 0 mm 1 m/S 743 mmHg 86%
    23:00 -8°C° 0 mm 1 m/S 743 mmHg 87%

    Morgen, 20 Oktober, Sonntag

    Zeit Temperatur Niederschläge Wind Luftdruck Luftfeuchtigkeit
    00:00 -8°C° 0 mm 1 m/S 743 mmHg 88%
    01:00 -8°C° 0 mm 1 m/S 742 mmHg 89%
    02:00 -8°C° 0 mm 1 m/S 742 mmHg 89%
    03:00 -8°C° 0 mm 1 m/S 742 mmHg 90%
    04:00 -8°C° 0 mm 1 m/S 742 mmHg 90%
    05:00 -8°C° 0 mm 1 m/S 742 mmHg 90%
    06:00 -9°C° 0 mm 2 m/S 742 mmHg 89%
    07:00 -9°C° 0 mm 2 m/S 742 mmHg 89%
    08:00 -8°C° 0 mm 2 m/S 742 mmHg 80%
    09:00 -6°C° 0 mm 2 m/S 742 mmHg 72%
    10:00 -5°C° 0 mm 3 m/S 742 mmHg 63%
    11:00 -4°C° 0 mm 3 m/S 742 mmHg 61%
    12:00 -2°C° 0 mm 3 m/S 741 mmHg 60%
    13:00 -1°C° 0 mm 3 m/S 741 mmHg 58%
    14:00 -1°C° 0 mm 3 m/S 741 mmHg 64%
    15:00 -2°C° 0 mm 3 m/S 740 mmHg 69%
    16:00 -2°C° 0 mm 3 m/S 740 mmHg 75%
    17:00 -2°C° 0 mm 3 m/S 740 mmHg 77%
    18:00 -4°C° 0 mm 3 m/S 740 mmHg 79%
    19:00 -4°C° 0 mm 4 m/S 739 mmHg 81%
    20:00 -4°C° 0 mm 4 m/S 739 mmHg 80%
    21:00 -3°C° 0 mm 4 m/S 738 mmHg 80%
    22:00 -4°C° 0 mm 5 m/S 738 mmHg 79%
    23:00 -4°C° 0.2 mm 5 m/S 738 mmHg 83%

    übermorgen, 21 Oktober, Montag

    Zeit Temperatur Niederschläge Wind Luftdruck Luftfeuchtigkeit
    00:00 -2°C° 0.2 mm 5 m/S 737 mmHg 87%
    01:00 -2°C° 0.2 mm 5 m/S 737 mmHg 91%
    02:00 -2°C° 0.2 mm 5 m/S 737 mmHg 91%
    03:00 -1°C° 0.2 mm 5 m/S 737 mmHg 90%
    04:00 -1°C° 0.2 mm 5 m/S 737 mmHg 90%
    05:00 -1°C° 0.2 mm 4 m/S 737 mmHg 92%
    06:00 -1°C° 0.2 mm 4 m/S 736 mmHg 93%
    07:00 0°C° 0.2 mm 3 m/S 736 mmHg 94%
    08:00 0°C° 0.1 mm 4 m/S 736 mmHg 94%
    09:00 0°C° 0.1 mm 4 m/S 736 mmHg 94%
    10:00 0°C° 0.1 mm 4 m/S 737 mmHg 93%
    11:00 0°C° 0 mm 4 m/S 736 mmHg 93%
    12:00 0°C° 0 mm 4 m/S 736 mmHg 93%
    13:00 +1°C° 0 mm 4 m/S 736 mmHg 92%
    14:00 +1°C° 0 mm 3 m/S 736 mmHg 93%
    15:00 +1°C° 0 mm 3 m/S 736 mmHg 94%
    16:00 +1°C° 0 mm 3 m/S 736 mmHg 95%
    17:00 +1°C° 0 mm 3 m/S 736 mmHg 95%
    18:00 +1°C° 0 mm 3 m/S 735 mmHg 96%
    19:00 +1°C° 0 mm 3 m/S 735 mmHg 96%
    20:00 0°C° 0.1 mm 4 m/S 734 mmHg 96%
    21:00 0°C° 0.1 mm 4 m/S 733 mmHg 96%
    22:00 +1°C° 0.1 mm 4 m/S 733 mmHg 96%
    23:00 +1°C° 0.4 mm 5 m/S 732 mmHg 95%

    22 Oktober, Dienstag

    Zeit Temperatur Niederschläge Wind Luftdruck Luftfeuchtigkeit
    00:00 +1°C° 0.4 mm 6 m/S 731 mmHg 94%
    01:00 +2°C° 0.4 mm 6 m/S 730 mmHg 93%
    02:00 +2°C° 0.2 mm 7 m/S 729 mmHg 92%
    03:00 +3°C° 0.2 mm 7 m/S 728 mmHg 91%
    04:00 +2°C° 0.2 mm 8 m/S 727 mmHg 90%
    05:00 +2°C° 0.3 mm 8 m/S 727 mmHg 89%
    06:00 +2°C° 0.3 mm 8 m/S 726 mmHg 88%
    07:00 +2°C° 0.3 mm 9 m/S 725 mmHg 88%
    08:00 +3°C° 0.3 mm 9 m/S 724 mmHg 87%
    09:00 +4°C° 0.3 mm 8 m/S 724 mmHg 87%
    10:00 +4°C° 0.3 mm 8 m/S 723 mmHg 87%
    11:00 +5°C° 0.2 mm 8 m/S 723 mmHg 87%
    12:00 +5°C° 0.2 mm 8 m/S 723 mmHg 87%
    13:00 +6°C° 0.2 mm 8 m/S 723 mmHg 87%
    14:00 +5°C° 0.2 mm 7 m/S 723 mmHg 87%
    15:00 +5°C° 0.2 mm 6 m/S 723 mmHg 87%
    16:00 +5°C° 0.2 mm 6 m/S 724 mmHg 87%
    17:00 +5°C° 0 mm 5 m/S 724 mmHg 86%
    18:00 +5°C° 0 mm 5 m/S 725 mmHg 86%
    19:00 +3°C° 0 mm 5 m/S 726 mmHg 85%
    20:00 +3°C° 0.1 mm 5 m/S 726 mmHg 86%
    21:00 +2°C° 0.1 mm 5 m/S 726 mmHg 86%
    22:00 +2°C° 0.1 mm 5 m/S 727 mmHg 86%
    23:00 +1°C° 0 mm 5 m/S 727 mmHg 86%

    23 Oktober, Mittwoch

    Zeit Temperatur Niederschläge Wind Luftdruck Luftfeuchtigkeit
    00:00 0°C° 0 mm 5 m/S 727 mmHg 85%
    01:00 -1°C° 0 mm 5 m/S 727 mmHg 84%
    02:00 -1°C° 0 mm 4 m/S 728 mmHg 86%
    03:00 -2°C° 0 mm 4 m/S 728 mmHg 87%
    04:00 -2°C° 0 mm 4 m/S 729 mmHg 88%
    05:00 -3°C° 0 mm 4 m/S 729 mmHg 89%
    06:00 -2°C° 0 mm 3 m/S 730 mmHg 89%
    07:00 -2°C° 0 mm 3 m/S 730 mmHg 90%
    08:00 -2°C° 0 mm 3 m/S 730 mmHg 86%
    09:00 -1°C° 0 mm 3 m/S 731 mmHg 83%
    10:00 -1°C° 0 mm 3 m/S 731 mmHg 80%
    11:00 0°C° 0 mm 3 m/S 731 mmHg 79%
    12:00 0°C° 0 mm 3 m/S 731 mmHg 78%
    13:00 0°C° 0 mm 3 m/S 731 mmHg 77%
    14:00 0°C° 0 mm 3 m/S 731 mmHg 79%
    15:00 -1°C° 0 mm 3 m/S 731 mmHg 81%
    16:00 -1°C° 0 mm 3 m/S 731 mmHg 83%
    17:00 -2°C° 0 mm 3 m/S 731 mmHg 85%
    18:00 -2°C° 0 mm 2 m/S 731 mmHg 87%
    19:00 -3°C° 0 mm 2 m/S 731 mmHg 89%
    20:00 -3°C° 0 mm 2 m/S 731 mmHg 89%
    21:00 -2°C° 0 mm 3 m/S 731 mmHg 89%
    22:00 -2°C° 0 mm 3 m/S 731 mmHg 89%
    23:00 -2°C° 0 mm 3 m/S 730 mmHg 88%

    24 Oktober, Donnerstag

    Zeit Temperatur Niederschläge Wind Luftdruck Luftfeuchtigkeit
    00:00 -1°C° 0 mm 3 m/S 730 mmHg 87%
    01:00 -1°C° 0 mm 4 m/S 729 mmHg 86%
    02:00 -1°C° 0 mm 4 m/S 729 mmHg 87%
    03:00 -1°C° 0 mm 4 m/S 728 mmHg 87%
    04:00 0°C° 0 mm 5 m/S 728 mmHg 88%
    05:00 0°C° 0 mm 5 m/S 728 mmHg 88%
    06:00 0°C° 0 mm 5 m/S 727 mmHg 88%
    07:00 0°C° 0 mm 5 m/S 727 mmHg 89%
    08:00 +1°C° 0 mm 5 m/S 727 mmHg 89%
    09:00 +2°C° 0 mm 5 m/S 726 mmHg 90%
    10:00 +2°C° 0 mm 5 m/S 726 mmHg 90%
    11:00 +2°C° 0 mm 5 m/S 726 mmHg 91%
    12:00 +3°C° 0 mm 5 m/S 726 mmHg 91%
    13:00 +3°C° 0 mm 5 m/S 726 mmHg 92%
    14:00 +3°C° 0.1 mm 5 m/S 726 mmHg 92%
    15:00 +3°C° 0.1 mm 5 m/S 726 mmHg 93%
    16:00 +3°C° 0.1 mm 5 m/S 727 mmHg 93%
    17:00 +3°C° 0 mm 5 m/S 727 mmHg 93%
    18:00 +3°C° 0 mm 5 m/S 727 mmHg 93%
    19:00 +4°C° 0 mm 4 m/S 728 mmHg 93%
    20:00 +4°C° 0 mm 4 m/S 728 mmHg 93%
    21:00 +4°C° 0 mm 4 m/S 728 mmHg 93%
    22:00 +4°C° 0 mm 4 m/S 728 mmHg 93%
    23:00 +4°C° 0 mm 3 m/S 729 mmHg 94%
    Mehr zeigen